Погода в Ульяновской

Россия / Архангельская область     60°53′21″N   43°06′43″E
темп.,
°C
ветер,
м/с
пор.,
м/с
влажн.,
%
обл.,
%
осадки,
мм/ч
давл.,
гПа
погр.,
м
9 марта, вт
вт900:00−21с389798 0.0 1011258
03:00−25ссз369891 0.1 1013149
06:00−28ссз259857 0.0 1015128
09:00−26с359472 0.0 1018290
12:00−22с359180 0.0 1019475
15:00−19с368889 0.0 1020604
18:00−23ссз369587 0.0 1022141
21:00−27с239744 0.0 102431
10 марта, ср
ср1000:00−27сз22983 0.0 102419
03:00−27з229631 0.0 102440
06:00−26зсз259849 0.0 1024101
09:00−22сз259674 0.1 1024287
12:00−17сз2590100 0.0 1024492
15:00−14сз2588100 0.1 1025527
18:00−16зсз239694 0.0 102524
21:00−17зсз389881 0.0 1025162
11 марта, чт
чт1100:00−18зсз289873 0.0 1025171
03:00−18сз279472 0.0 1026141
06:00−20зсз259114 0.0 102788
09:00−16зсз368211 0.0 1027251
12:00−10з37780 0.0 1026452
15:00−8з48730 0.0 1025839
18:00−12зюз36880 0.0 1024131
21:00−12зюз4128725 0.0 1024421
12 марта, пт
пт1200:00−12зюз41489100 0.0 1022540
03:00−12зюз41189100 0.0 1021518
06:00−13зюз41292100 0.0 1021456
09:00−12зюз499098 0.0 1021403
12:00−7зюз4108336 0.0 1020541
15:00−4зюз5107947 0.0 1020710
18:00−7юз4118965 0.0 1019459
21:00−10юз4128873 0.0 1020434
13 марта, сб
сб1300:00−12ююз4128939 0.0 1020419
03:00−14ююз3119220 0.0 1019381
06:00−15ю410930 0.0 1019329
09:00−12ю410870 0.0 1018382
12:00−8ю511810 0.0 1017564
15:00−6ю5118516 0.0 1015824
18:00−8ююз51288100 0.1 1015849
21:00−8ююз41190100 0.2 1014742